owner,sensor,date,latitude,longitude,vertical_datum,wind_speed,wind_to_direction,wind_speed_of_gust,qcFlag 
WAVCIS,ioos:station:WAVCIS:CSI06:1,2010-06-01T00:00:00Z,28.8667,-90.4833,10.0,2.434,203.0,,'11111222,11111222,99999999' 
WAVCIS,ioos:station:WAVCIS:CSI06:1,2010-06-01T01:00:00Z,28.8667,-90.4833,10.0,2.769,193.0,,'11111222,11111222,99999999' 
WAVCIS,ioos:station:WAVCIS:CSI06:1,2010-06-01T02:00:00Z,28.8667,-90.4833,10.0,4.529,172.0,,'11111222,11111222,99999999' 
WAVCIS,ioos:station:WAVCIS:CSI06:1,2010-06-01T03:00:00Z,28.8667,-90.4833,10.0,5.367,198.0,,'11111222,11111222,99999999' 
WAVCIS,ioos:station:WAVCIS:CSI06:1,2010-06-01T04:00:00Z,28.8667,-90.4833,10.0,5.605,176.0,,'11111222,11111222,99999999' 
WAVCIS,ioos:station:WAVCIS:CSI06:1,2010-06-01T05:00:00Z,28.8667,-90.4833,10.0,4.526,191.0,,'11111222,11111222,99999999' 
WAVCIS,ioos:station:WAVCIS:CSI06:1,2010-06-01T06:00:00Z,28.8667,-90.4833,10.0,4.965,192.0,,'11111222,11111222,99999999' 
WAVCIS,ioos:station:WAVCIS:CSI06:1,2010-06-01T07:00:00Z,28.8667,-90.4833,10.0,4.519,192.0,,'11111222,11111222,99999999' 
WAVCIS,ioos:station:WAVCIS:CSI06:1,2010-06-01T08:00:00Z,28.8667,-90.4833,10.0,3.082,217.0,,'11111222,11111222,99999999' 
WAVCIS,ioos:station:WAVCIS:CSI06:1,2010-06-01T09:00:00Z,28.8667,-90.4833,10.0,2.866,227.0,,'11111222,11111222,99999999' 
WAVCIS,ioos:station:WAVCIS:CSI06:1,2010-06-01T10:00:00Z,28.8667,-90.4833,10.0,3.442,220.0,,'11111222,11111222,99999999' 
WAVCIS,ioos:station:WAVCIS:CSI06:1,2010-06-01T11:00:00Z,28.8667,-90.4833,10.0,2.819,226.0,,'11111222,11111222,99999999' 
WAVCIS,ioos:station:WAVCIS:CSI06:1,2010-06-01T12:00:00Z,28.8667,-90.4833,10.0,2.432,234.0,,'11111222,11111222,99999999' 
WAVCIS,ioos:station:WAVCIS:CSI06:1,2010-06-01T13:00:00Z,28.8667,-90.4833,10.0,1.717,204.0,,'11111222,11111222,99999999' 
WAVCIS,ioos:station:WAVCIS:CSI06:1,2010-06-01T14:00:00Z,28.8667,-90.4833,10.0,1.44,214.0,,'11111222,11111222,99999999' 
WAVCIS,ioos:station:WAVCIS:CSI06:1,2010-06-01T15:00:00Z,28.8667,-90.4833,10.0,0.804,245.0,,'11111222,11111222,99999999' 
WAVCIS,ioos:station:WAVCIS:CSI06:1,2010-06-01T16:00:00Z,28.8667,-90.4833,10.0,1.232,85.0,,'11111222,11111222,99999999' 
WAVCIS,ioos:station:WAVCIS:CSI06:1,2010-06-01T17:00:00Z,28.8667,-90.4833,10.0,2.223,96.0,,'11111222,11111222,99999999' 
WAVCIS,ioos:station:WAVCIS:CSI06:1,2010-06-01T18:00:00Z,28.8667,-90.4833,10.0,1.516,125.0,,'11111222,11111222,99999999' 
WAVCIS,ioos:station:WAVCIS:CSI06:1,2010-06-01T19:00:00Z,28.8667,-90.4833,10.0,2.817,155.0,,'11111222,11111222,99999999' 
WAVCIS,ioos:station:WAVCIS:CSI06:1,2010-06-01T20:00:00Z,28.8667,-90.4833,10.0,2.865,160.0,,'11111222,11111222,99999999' 
WAVCIS,ioos:station:WAVCIS:CSI06:1,2010-06-01T21:00:00Z,28.8667,-90.4833,10.0,3.623,170.0,,'11111222,11111222,99999999' 
WAVCIS,ioos:station:WAVCIS:CSI06:1,2010-06-01T22:00:00Z,28.8667,-90.4833,10.0,3.727,160.0,,'11111222,11111222,99999999' 
WAVCIS,ioos:station:WAVCIS:CSI06:1,2010-06-01T23:00:00Z,28.8667,-90.4833,10.0,4.825,181.0,,'11111222,11111222,99999999' 
WAVCIS,ioos:station:WAVCIS:CSI06:1,2010-06-02T00:00:00Z,28.8667,-90.4833,10.0,5.007,175.0,,'11111222,11111222,99999999' 
WAVCIS,ioos:station:WAVCIS:CSI06:1,2010-06-02T01:00:00Z,28.8667,-90.4833,10.0,4.341,173.0,,'11111222,11111222,99999999' 
WAVCIS,ioos:station:WAVCIS:CSI06:1,2010-06-02T02:00:00Z,28.8667,-90.4833,10.0,4.904,189.0,,'11111222,11111222,99999999' 
WAVCIS,ioos:station:WAVCIS:CSI06:1,2010-06-02T03:00:00Z,28.8667,-90.4833,10.0,4.386,197.0,,'11111222,11111222,99999999' 
WAVCIS,ioos:station:WAVCIS:CSI06:1,2010-06-02T04:00:00Z,28.8667,-90.4833,10.0,6.198,175.0,,'11111222,11111222,99999999' 
WAVCIS,ioos:station:WAVCIS:CSI06:1,2010-06-02T05:00:00Z,28.8667,-90.4833,10.0,5.278,182.0,,'11111222,11111222,99999999' 
WAVCIS,ioos:station:WAVCIS:CSI06:1,2010-06-02T06:00:00Z,28.8667,-90.4833,10.0,2.922,184.0,,'11111222,11111222,99999999' 
WAVCIS,ioos:station:WAVCIS:CSI06:1,2010-06-02T07:00:00Z,28.8667,-90.4833,10.0,3.644,177.0,,'11111222,11111222,99999999' 
WAVCIS,ioos:station:WAVCIS:CSI06:1,2010-06-02T08:00:00Z,28.8667,-90.4833,10.0,4.286,197.0,,'11111222,11111222,99999999' 
WAVCIS,ioos:station:WAVCIS:CSI06:1,2010-06-02T09:00:00Z,28.8667,-90.4833,10.0,5.118,192.0,,'11111222,11111222,99999999' 
WAVCIS,ioos:station:WAVCIS:CSI06:1,2010-06-02T10:00:00Z,28.8667,-90.4833,10.0,4.952,184.0,,'11111222,11111222,99999999' 
WAVCIS,ioos:station:WAVCIS:CSI06:1,2010-06-02T11:00:00Z,28.8667,-90.4833,10.0,5.023,201.0,,'11111222,11111222,99999999' 
WAVCIS,ioos:station:WAVCIS:CSI06:1,2010-06-02T12:00:00Z,28.8667,-90.4833,10.0,4.513,171.0,,'11111222,11111222,99999999' 
WAVCIS,ioos:station:WAVCIS:CSI06:1,2010-06-02T13:00:00Z,28.8667,-90.4833,10.0,5.235,170.0,,'11111222,11111222,99999999' 
WAVCIS,ioos:station:WAVCIS:CSI06:1,2010-06-02T14:00:00Z,28.8667,-90.4833,10.0,6.632,165.0,,'11111222,11111222,99999999' 
WAVCIS,ioos:station:WAVCIS:CSI06:1,2010-06-02T15:00:00Z,28.8667,-90.4833,10.0,10.26,156.0,,'11111222,11111222,99999999' 
WAVCIS,ioos:station:WAVCIS:CSI06:1,2010-06-02T16:00:00Z,28.8667,-90.4833,10.0,11.13,256.0,,'11111222,11111222,99999999' 
WAVCIS,ioos:station:WAVCIS:CSI06:1,2010-06-02T17:00:00Z,28.8667,-90.4833,10.0,8.63,243.0,,'11111222,11111222,99999999' 
WAVCIS,ioos:station:WAVCIS:CSI06:1,2010-06-02T18:00:00Z,28.8667,-90.4833,10.0,0.578,74.0,,'11111222,11111222,99999999' 
WAVCIS,ioos:station:WAVCIS:CSI06:1,2010-06-02T19:00:00Z,28.8667,-90.4833,10.0,2.412,101.0,,'11111222,11111222,99999999' 
WAVCIS,ioos:station:WAVCIS:CSI06:1,2010-06-02T20:00:00Z,28.8667,-90.4833,10.0,7.23,237.0,,'11111222,11111222,99999999' 
WAVCIS,ioos:station:WAVCIS:CSI06:1,2010-06-02T21:00:00Z,28.8667,-90.4833,10.0,7.96,196.0,,'11111222,11111222,99999999' 
WAVCIS,ioos:station:WAVCIS:CSI06:1,2010-06-02T22:00:00Z,28.8667,-90.4833,10.0,4.931,136.0,,'11111222,11111222,99999999' 
WAVCIS,ioos:station:WAVCIS:CSI06:1,2010-06-02T23:00:00Z,28.8667,-90.4833,10.0,7.63,147.0,,'11111222,11111222,99999999' 
WAVCIS,ioos:station:WAVCIS:CSI06:1,2010-06-03T00:00:00Z,28.8667,-90.4833,10.0,4.715,141.0,,'11111222,11111222,99999999' 
WAVCIS,ioos:station:WAVCIS:CSI06:1,2010-06-03T01:00:00Z,28.8667,-90.4833,10.0,6.793,190.0,,'11111222,11111222,99999999' 
WAVCIS,ioos:station:WAVCIS:CSI06:1,2010-06-03T02:00:00Z,28.8667,-90.4833,10.0,6.495,174.0,,'11111222,11111222,99999999' 
WAVCIS,ioos:station:WAVCIS:CSI06:1,2010-06-03T03:00:00Z,28.8667,-90.4833,10.0,6.297,158.0,,'11111222,11111222,99999999' 
WAVCIS,ioos:station:WAVCIS:CSI06:1,2010-06-03T04:00:00Z,28.8667,-90.4833,10.0,6.024,139.0,,'11111222,11111222,99999999' 
WAVCIS,ioos:station:WAVCIS:CSI06:1,2010-06-03T05:00:00Z,28.8667,-90.4833,10.0,3.912,141.0,,'11111222,11111222,99999999' 
WAVCIS,ioos:station:WAVCIS:CSI06:1,2010-06-03T06:00:00Z,28.8667,-90.4833,10.0,5.502,136.0,,'11111222,11111222,99999999' 
WAVCIS,ioos:station:WAVCIS:CSI06:1,2010-06-03T07:00:00Z,28.8667,-90.4833,10.0,6.812,160.0,,'11111222,11111222,99999999' 
WAVCIS,ioos:station:WAVCIS:CSI06:1,2010-06-03T08:00:00Z,28.8667,-90.4833,10.0,6.365,147.0,,'11111222,11111222,99999999' 
WAVCIS,ioos:station:WAVCIS:CSI06:1,2010-06-03T09:00:00Z,28.8667,-90.4833,10.0,7.46,159.0,,'11111222,11111222,99999999' 
WAVCIS,ioos:station:WAVCIS:CSI06:1,2010-06-03T10:00:00Z,28.8667,-90.4833,10.0,7.69,153.0,,'11111222,11111222,99999999' 
WAVCIS,ioos:station:WAVCIS:CSI06:1,2010-06-03T11:00:00Z,28.8667,-90.4833,10.0,8.08,157.0,,'11111222,11111222,99999999' 
WAVCIS,ioos:station:WAVCIS:CSI06:1,2010-06-03T12:00:00Z,28.8667,-90.4833,10.0,7.96,159.0,,'11111222,11111222,99999999' 
WAVCIS,ioos:station:WAVCIS:CSI06:1,2010-06-03T13:00:00Z,28.8667,-90.4833,10.0,8.82,157.0,,'11111222,11111222,99999999' 
WAVCIS,ioos:station:WAVCIS:CSI06:1,2010-06-03T14:00:00Z,28.8667,-90.4833,10.0,7.76,150.0,,'11111222,11111222,99999999' 
WAVCIS,ioos:station:WAVCIS:CSI06:1,2010-06-03T15:00:00Z,28.8667,-90.4833,10.0,9.51,143.0,,'11111222,11111222,99999999' 
WAVCIS,ioos:station:WAVCIS:CSI06:1,2010-06-03T16:00:00Z,28.8667,-90.4833,10.0,14.5,225.0,,'11111222,11111222,99999999' 
WAVCIS,ioos:station:WAVCIS:CSI06:1,2010-06-03T17:00:00Z,28.8667,-90.4833,10.0,5.645,174.0,,'11111222,11111222,99999999' 
WAVCIS,ioos:station:WAVCIS:CSI06:1,2010-06-03T18:00:00Z,28.8667,-90.4833,10.0,3.21,158.0,,'11111222,11111222,99999999' 
WAVCIS,ioos:station:WAVCIS:CSI06:1,2010-06-03T19:00:00Z,28.8667,-90.4833,10.0,3.082,174.0,,'11111222,11111222,99999999' 
WAVCIS,ioos:station:WAVCIS:CSI06:1,2010-06-03T20:00:00Z,28.8667,-90.4833,10.0,4.715,186.0,,'11111222,11111222,99999999' 
WAVCIS,ioos:station:WAVCIS:CSI06:1,2010-06-03T21:00:00Z,28.8667,-90.4833,10.0,6.949,196.0,,'11111222,11111222,99999999' 
WAVCIS,ioos:station:WAVCIS:CSI06:1,2010-06-03T22:00:00Z,28.8667,-90.4833,10.0,7.03,188.0,,'11111222,11111222,99999999' 
WAVCIS,ioos:station:WAVCIS:CSI06:1,2010-06-03T23:00:00Z,28.8667,-90.4833,10.0,7.41,213.0,,'11111222,11111222,99999999' 
WAVCIS,ioos:station:WAVCIS:CSI06:1,2010-06-04T00:00:00Z,28.8667,-90.4833,10.0,6.26,216.0,,'11111222,11111222,99999999' 
WAVCIS,ioos:station:WAVCIS:CSI06:1,2010-06-04T01:00:00Z,28.8667,-90.4833,10.0,7.04,227.0,,'11111222,11111222,99999999' 
WAVCIS,ioos:station:WAVCIS:CSI06:1,2010-06-04T02:00:00Z,28.8667,-90.4833,10.0,6.897,227.0,,'11111222,11111222,99999999' 
WAVCIS,ioos:station:WAVCIS:CSI06:1,2010-06-04T03:00:00Z,28.8667,-90.4833,10.0,4.93,219.0,,'11111222,11111222,99999999' 
WAVCIS,ioos:station:WAVCIS:CSI06:1,2010-06-04T04:00:00Z,28.8667,-90.4833,10.0,4.037,205.0,,'11111222,11111222,99999999' 
WAVCIS,ioos:station:WAVCIS:CSI06:1,2010-06-04T05:00:00Z,28.8667,-90.4833,10.0,3.26,228.0,,'11111222,11111222,99999999' 
WAVCIS,ioos:station:WAVCIS:CSI06:1,2010-06-04T06:00:00Z,28.8667,-90.4833,10.0,2.824,193.0,,'11111222,11111222,99999999' 
WAVCIS,ioos:station:WAVCIS:CSI06:1,2010-06-04T07:00:00Z,28.8667,-90.4833,10.0,4.288,186.0,,'11111222,11111222,99999999' 
WAVCIS,ioos:station:WAVCIS:CSI06:1,2010-06-04T08:00:00Z,28.8667,-90.4833,10.0,5.314,181.0,,'11111222,11111222,99999999' 
WAVCIS,ioos:station:WAVCIS:CSI06:1,2010-06-04T09:00:00Z,28.8667,-90.4833,10.0,5.855,175.0,,'11111222,11111222,99999999' 
WAVCIS,ioos:station:WAVCIS:CSI06:1,2010-06-04T10:00:00Z,28.8667,-90.4833,10.0,7.38,174.0,,'11111222,11111222,99999999' 
WAVCIS,ioos:station:WAVCIS:CSI06:1,2010-06-04T11:00:00Z,28.8667,-90.4833,10.0,8.01,163.0,,'11111222,11111222,99999999' 
WAVCIS,ioos:station:WAVCIS:CSI06:1,2010-06-04T12:00:00Z,28.8667,-90.4833,10.0,9.2,163.0,,'11111222,11111222,99999999' 
WAVCIS,ioos:station:WAVCIS:CSI06:1,2010-06-04T13:00:00Z,28.8667,-90.4833,10.0,9.62,164.0,,'11111222,11111222,99999999' 
WAVCIS,ioos:station:WAVCIS:CSI06:1,2010-06-04T14:00:00Z,28.8667,-90.4833,10.0,10.7,157.0,,'11111222,11111222,99999999' 
WAVCIS,ioos:station:WAVCIS:CSI06:1,2010-06-04T15:00:00Z,28.8667,-90.4833,10.0,8.85,162.0,,'11111222,11111222,99999999' 
WAVCIS,ioos:station:WAVCIS:CSI06:1,2010-06-04T16:00:00Z,28.8667,-90.4833,10.0,10.36,148.0,,'11111222,11111222,99999999' 
WAVCIS,ioos:station:WAVCIS:CSI06:1,2010-06-04T17:00:00Z,28.8667,-90.4833,10.0,12.52,165.0,,'11111222,11111222,99999999' 
WAVCIS,ioos:station:WAVCIS:CSI06:1,2010-06-04T18:00:00Z,28.8667,-90.4833,10.0,12.96,183.0,,'11111222,11111222,99999999' 
WAVCIS,ioos:station:WAVCIS:CSI06:1,2010-06-04T19:00:00Z,28.8667,-90.4833,10.0,5.919,182.0,,'11111222,11111222,99999999' 
WAVCIS,ioos:station:WAVCIS:CSI06:1,2010-06-04T20:00:00Z,28.8667,-90.4833,10.0,7.42,164.0,,'11111222,11111222,99999999' 
WAVCIS,ioos:station:WAVCIS:CSI06:1,2010-06-04T21:00:00Z,28.8667,-90.4833,10.0,7.45,207.0,,'11111222,11111222,99999999' 
WAVCIS,ioos:station:WAVCIS:CSI06:1,2010-06-04T22:00:00Z,28.8667,-90.4833,10.0,8.27,196.0,,'11111222,11111222,99999999' 
WAVCIS,ioos:station:WAVCIS:CSI06:1,2010-06-04T23:00:00Z,28.8667,-90.4833,10.0,7.11,202.0,,'11111222,11111222,99999999' 
WAVCIS,ioos:station:WAVCIS:CSI06:1,2010-06-05T00:00:00Z,28.8667,-90.4833,10.0,6.496,202.0,,'11111222,11111222,99999999' 
WAVCIS,ioos:station:WAVCIS:CSI06:1,2010-06-05T01:00:00Z,28.8667,-90.4833,10.0,7.3,205.0,,'11111222,11111222,99999999' 
WAVCIS,ioos:station:WAVCIS:CSI06:1,2010-06-05T02:00:00Z,28.8667,-90.4833,10.0,6.722,208.0,,'11111222,11111222,99999999' 
WAVCIS,ioos:station:WAVCIS:CSI06:1,2010-06-05T03:00:00Z,28.8667,-90.4833,10.0,5.253,199.0,,'11111222,11111222,99999999' 
WAVCIS,ioos:station:WAVCIS:CSI06:1,2010-06-05T04:00:00Z,28.8667,-90.4833,10.0,5.848,176.0,,'11111222,11111222,99999999' 
WAVCIS,ioos:station:WAVCIS:CSI06:1,2010-06-05T05:00:00Z,28.8667,-90.4833,10.0,5.451,169.0,,'11111222,11111222,99999999' 
WAVCIS,ioos:station:WAVCIS:CSI06:1,2010-06-05T06:00:00Z,28.8667,-90.4833,10.0,6.091,167.0,,'11111222,11111222,99999999' 
WAVCIS,ioos:station:WAVCIS:CSI06:1,2010-06-05T07:00:00Z,28.8667,-90.4833,10.0,6.771,175.0,,'11111222,11111222,99999999' 
WAVCIS,ioos:station:WAVCIS:CSI06:1,2010-06-05T08:00:00Z,28.8667,-90.4833,10.0,6.976,173.0,,'11111222,11111222,99999999' 
WAVCIS,ioos:station:WAVCIS:CSI06:1,2010-06-05T09:00:00Z,28.8667,-90.4833,10.0,6.649,178.0,,'11111222,11111222,99999999' 
WAVCIS,ioos:station:WAVCIS:CSI06:1,2010-06-05T10:00:00Z,28.8667,-90.4833,10.0,9.05,182.0,,'11111222,11111222,99999999' 
WAVCIS,ioos:station:WAVCIS:CSI06:1,2010-06-05T11:00:00Z,28.8667,-90.4833,10.0,9.42,175.0,,'11111222,11111222,99999999' 
WAVCIS,ioos:station:WAVCIS:CSI06:1,2010-06-05T12:00:00Z,28.8667,-90.4833,10.0,8.97,178.0,,'11111222,11111222,99999999' 
WAVCIS,ioos:station:WAVCIS:CSI06:1,2010-06-05T13:00:00Z,28.8667,-90.4833,10.0,8.17,181.0,,'11111222,11111222,99999999' 
WAVCIS,ioos:station:WAVCIS:CSI06:1,2010-06-05T14:00:00Z,28.8667,-90.4833,10.0,7.23,161.0,,'11111222,11111222,99999999' 
WAVCIS,ioos:station:WAVCIS:CSI06:1,2010-06-05T15:00:00Z,28.8667,-90.4833,10.0,7.12,152.0,,'11111222,11111222,99999999' 
WAVCIS,ioos:station:WAVCIS:CSI06:1,2010-06-05T16:00:00Z,28.8667,-90.4833,10.0,6.562,164.0,,'11111222,11111222,99999999' 
WAVCIS,ioos:station:WAVCIS:CSI06:1,2010-06-05T17:00:00Z,28.8667,-90.4833,10.0,6.689,166.0,,'11111222,11111222,99999999' 
WAVCIS,ioos:station:WAVCIS:CSI06:1,2010-06-05T18:00:00Z,28.8667,-90.4833,10.0,7.65,172.0,,'11111222,11111222,99999999' 
WAVCIS,ioos:station:WAVCIS:CSI06:1,2010-06-05T19:00:00Z,28.8667,-90.4833,10.0,5.963,178.0,,'11111222,11111222,99999999' 
WAVCIS,ioos:station:WAVCIS:CSI06:1,2010-06-05T20:00:00Z,28.8667,-90.4833,10.0,8.02,191.0,,'11111222,11111222,99999999' 
WAVCIS,ioos:station:WAVCIS:CSI06:1,2010-06-05T21:00:00Z,28.8667,-90.4833,10.0,8.37,191.0,,'11111222,11111222,99999999' 
WAVCIS,ioos:station:WAVCIS:CSI06:1,2010-06-05T22:00:00Z,28.8667,-90.4833,10.0,7.41,193.0,,'11111222,11111222,99999999' 
WAVCIS,ioos:station:WAVCIS:CSI06:1,2010-06-05T23:00:00Z,28.8667,-90.4833,10.0,7.91,188.0,,'11111222,11111222,99999999' 
WAVCIS,ioos:station:WAVCIS:CSI06:1,2010-06-06T00:00:00Z,28.8667,-90.4833,10.0,5.618,199.0,,'11111222,11111222,99999999' 
WAVCIS,ioos:station:WAVCIS:CSI06:1,2010-06-06T01:00:00Z,28.8667,-90.4833,10.0,5.708,190.0,,'11111222,11111222,99999999' 
WAVCIS,ioos:station:WAVCIS:CSI06:1,2010-06-06T02:00:00Z,28.8667,-90.4833,10.0,5.437,204.0,,'11111222,11111222,99999999' 
WAVCIS,ioos:station:WAVCIS:CSI06:1,2010-06-06T03:00:00Z,28.8667,-90.4833,10.0,4.653,191.0,,'11111222,11111222,99999999' 
WAVCIS,ioos:station:WAVCIS:CSI06:1,2010-06-06T04:00:00Z,28.8667,-90.4833,10.0,5.179,169.0,,'11111222,11111222,99999999' 
WAVCIS,ioos:station:WAVCIS:CSI06:1,2010-06-06T05:00:00Z,28.8667,-90.4833,10.0,7.36,173.0,,'11111222,11111222,99999999' 
WAVCIS,ioos:station:WAVCIS:CSI06:1,2010-06-06T06:00:00Z,28.8667,-90.4833,10.0,6.874,178.0,,'11111222,11111222,99999999' 
WAVCIS,ioos:station:WAVCIS:CSI06:1,2010-06-06T07:00:00Z,28.8667,-90.4833,10.0,6.515,171.0,,'11111222,11111222,99999999' 
WAVCIS,ioos:station:WAVCIS:CSI06:1,2010-06-06T08:00:00Z,28.8667,-90.4833,10.0,5.799,207.0,,'11111222,11111222,99999999' 
WAVCIS,ioos:station:WAVCIS:CSI06:1,2010-06-06T09:00:00Z,28.8667,-90.4833,10.0,5.177,207.0,,'11111222,11111222,99999999' 
WAVCIS,ioos:station:WAVCIS:CSI06:1,2010-06-06T10:00:00Z,28.8667,-90.4833,10.0,5.42,202.0,,'11111222,11111222,99999999' 
WAVCIS,ioos:station:WAVCIS:CSI06:1,2010-06-06T11:00:00Z,28.8667,-90.4833,10.0,3.57,177.0,,'11111222,11111222,99999999' 
WAVCIS,ioos:station:WAVCIS:CSI06:1,2010-06-06T12:00:00Z,28.8667,-90.4833,10.0,5.325,161.0,,'11111222,11111222,99999999' 
WAVCIS,ioos:station:WAVCIS:CSI06:1,2010-06-06T13:00:00Z,28.8667,-90.4833,10.0,4.995,172.0,,'11111222,11111222,99999999' 
WAVCIS,ioos:station:WAVCIS:CSI06:1,2010-06-06T14:00:00Z,28.8667,-90.4833,10.0,3.004,184.0,,'11111222,11111222,99999999' 
WAVCIS,ioos:station:WAVCIS:CSI06:1,2010-06-06T15:00:00Z,28.8667,-90.4833,10.0,3.222,180.0,,'11111222,11111222,99999999' 
WAVCIS,ioos:station:WAVCIS:CSI06:1,2010-06-06T16:00:00Z,28.8667,-90.4833,10.0,3.184,158.0,,'11111222,11111222,99999999' 
WAVCIS,ioos:station:WAVCIS:CSI06:1,2010-06-06T17:00:00Z,28.8667,-90.4833,10.0,4.375,154.0,,'11111222,11111222,99999999' 
WAVCIS,ioos:station:WAVCIS:CSI06:1,2010-06-06T18:00:00Z,28.8667,-90.4833,10.0,3.224,172.0,,'11111222,11111222,99999999' 
WAVCIS,ioos:station:WAVCIS:CSI06:1,2010-06-06T19:00:00Z,28.8667,-90.4833,10.0,4.962,164.0,,'11111222,11111222,99999999' 
WAVCIS,ioos:station:WAVCIS:CSI06:1,2010-06-06T20:00:00Z,28.8667,-90.4833,10.0,3.822,181.0,,'11111222,11111222,99999999' 
WAVCIS,ioos:station:WAVCIS:CSI06:1,2010-06-06T21:00:00Z,28.8667,-90.4833,10.0,4.432,196.0,,'11111222,11111222,99999999' 
WAVCIS,ioos:station:WAVCIS:CSI06:1,2010-06-06T22:00:00Z,28.8667,-90.4833,10.0,4.409,185.0,,'11111222,11111222,99999999' 
WAVCIS,ioos:station:WAVCIS:CSI06:1,2010-06-06T23:00:00Z,28.8667,-90.4833,10.0,4.526,193.0,,'11111222,11111222,99999999' 
WAVCIS,ioos:station:WAVCIS:CSI06:1,2010-06-07T00:00:00Z,28.8667,-90.4833,10.0,3.298,232.0,,'11111222,11111222,99999999' 
WAVCIS,ioos:station:WAVCIS:CSI06:1,2010-06-07T01:00:00Z,28.8667,-90.4833,10.0,3.526,210.0,,'11111222,11111222,99999999' 
WAVCIS,ioos:station:WAVCIS:CSI06:1,2010-06-07T02:00:00Z,28.8667,-90.4833,10.0,5.982,191.0,,'11111222,11111222,99999999' 
WAVCIS,ioos:station:WAVCIS:CSI06:1,2010-06-07T03:00:00Z,28.8667,-90.4833,10.0,3.364,243.0,,'11111222,11111222,99999999' 
WAVCIS,ioos:station:WAVCIS:CSI06:1,2010-06-07T04:00:00Z,28.8667,-90.4833,10.0,2.963,220.0,,'11111222,11111222,99999999' 
WAVCIS,ioos:station:WAVCIS:CSI06:1,2010-06-07T05:00:00Z,28.8667,-90.4833,10.0,6.637,208.0,,'11111222,11111222,99999999' 
WAVCIS,ioos:station:WAVCIS:CSI06:1,2010-06-07T06:00:00Z,28.8667,-90.4833,10.0,4.842,238.0,,'11111222,11111222,99999999' 
WAVCIS,ioos:station:WAVCIS:CSI06:1,2010-06-07T07:00:00Z,28.8667,-90.4833,10.0,5.174,245.0,,'11111222,11111222,99999999' 
WAVCIS,ioos:station:WAVCIS:CSI06:1,2010-06-07T08:00:00Z,28.8667,-90.4833,10.0,4.439,251.0,,'11111222,11111222,99999999' 
WAVCIS,ioos:station:WAVCIS:CSI06:1,2010-06-07T09:00:00Z,28.8667,-90.4833,10.0,3.319,250.0,,'11111222,11111222,99999999' 
WAVCIS,ioos:station:WAVCIS:CSI06:1,2010-06-07T10:00:00Z,28.8667,-90.4833,10.0,3.567,270.0,,'11111222,11111222,99999999' 
WAVCIS,ioos:station:WAVCIS:CSI06:1,2010-06-07T11:00:00Z,28.8667,-90.4833,10.0,3.601,240.0,,'11111222,11111222,99999999' 
WAVCIS,ioos:station:WAVCIS:CSI06:1,2010-06-07T12:00:00Z,28.8667,-90.4833,10.0,2.774,247.0,,'11111222,11111222,99999999' 
WAVCIS,ioos:station:WAVCIS:CSI06:1,2010-06-07T13:00:00Z,28.8667,-90.4833,10.0,2.127,243.0,,'11111222,11111222,99999999' 
WAVCIS,ioos:station:WAVCIS:CSI06:1,2010-06-07T14:00:00Z,28.8667,-90.4833,10.0,1.52,219.0,,'11111222,11111222,99999999' 
WAVCIS,ioos:station:WAVCIS:CSI06:1,2010-06-07T15:00:00Z,28.8667,-90.4833,10.0,2.169,226.0,,'11111222,11111222,99999999' 
WAVCIS,ioos:station:WAVCIS:CSI06:1,2010-06-07T16:00:00Z,28.8667,-90.4833,10.0,2.074,234.0,,'11111222,11111222,99999999' 
WAVCIS,ioos:station:WAVCIS:CSI06:1,2010-06-07T17:00:00Z,28.8667,-90.4833,10.0,2.656,247.0,,'11111222,11111222,99999999' 
WAVCIS,ioos:station:WAVCIS:CSI06:1,2010-06-07T18:00:00Z,28.8667,-90.4833,10.0,3.724,234.0,,'11111222,11111222,99999999' 
WAVCIS,ioos:station:WAVCIS:CSI06:1,2010-06-07T19:00:00Z,28.8667,-90.4833,10.0,3.907,244.0,,'11111222,11111222,99999999' 
WAVCIS,ioos:station:WAVCIS:CSI06:1,2010-06-07T20:00:00Z,28.8667,-90.4833,10.0,3.269,241.0,,'11111222,11111222,99999999' 
WAVCIS,ioos:station:WAVCIS:CSI06:1,2010-06-07T21:00:00Z,28.8667,-90.4833,10.0,2.989,234.0,,'11111222,11111222,99999999' 
WAVCIS,ioos:station:WAVCIS:CSI06:1,2010-06-07T22:00:00Z,28.8667,-90.4833,10.0,2.788,235.0,,'11111222,11111222,99999999' 
WAVCIS,ioos:station:WAVCIS:CSI06:1,2010-06-07T23:00:00Z,28.8667,-90.4833,10.0,2.952,229.0,,'11111222,11111222,99999999' 
WAVCIS,ioos:station:WAVCIS:CSI06:1,2010-06-08T00:00:00Z,28.8667,-90.4833,10.0,1.998,220.0,,'11111222,11111222,99999999' 
WAVCIS,ioos:station:WAVCIS:CSI06:1,2010-06-08T01:00:00Z,28.8667,-90.4833,10.0,2.881,202.0,,'11111222,11111222,99999999' 
WAVCIS,ioos:station:WAVCIS:CSI06:1,2010-06-08T02:00:00Z,28.8667,-90.4833,10.0,1.418,235.0,,'11111222,11111222,99999999' 
WAVCIS,ioos:station:WAVCIS:CSI06:1,2010-06-08T03:00:00Z,28.8667,-90.4833,10.0,1.111,253.0,,'11111222,11111222,99999999' 
WAVCIS,ioos:station:WAVCIS:CSI06:1,2010-06-08T04:00:00Z,28.8667,-90.4833,10.0,0.611,242.0,,'11111222,11111222,99999999' 
WAVCIS,ioos:station:WAVCIS:CSI06:1,2010-06-08T05:00:00Z,28.8667,-90.4833,10.0,2.048,205.0,,'11111222,11111222,99999999' 
WAVCIS,ioos:station:WAVCIS:CSI06:1,2010-06-08T06:00:00Z,28.8667,-90.4833,10.0,2.995,165.0,,'11111222,11111222,99999999' 
WAVCIS,ioos:station:WAVCIS:CSI06:1,2010-06-08T07:00:00Z,28.8667,-90.4833,10.0,4.606,185.0,,'11111222,11111222,99999999' 
WAVCIS,ioos:station:WAVCIS:CSI06:1,2010-06-08T08:00:00Z,28.8667,-90.4833,10.0,5.504,180.0,,'11111222,11111222,99999999' 
WAVCIS,ioos:station:WAVCIS:CSI06:1,2010-06-08T09:00:00Z,28.8667,-90.4833,10.0,4.738,197.0,,'11111222,11111222,99999999' 
WAVCIS,ioos:station:WAVCIS:CSI06:1,2010-06-08T10:00:00Z,28.8667,-90.4833,10.0,4.715,202.0,,'11111222,11111222,99999999' 
WAVCIS,ioos:station:WAVCIS:CSI06:1,2010-06-08T11:00:00Z,28.8667,-90.4833,10.0,3.053,178.0,,'11111222,11111222,99999999' 
WAVCIS,ioos:station:WAVCIS:CSI06:1,2010-06-08T12:00:00Z,28.8667,-90.4833,10.0,3.63,217.0,,'11111222,11111222,99999999' 
WAVCIS,ioos:station:WAVCIS:CSI06:1,2010-06-08T13:00:00Z,28.8667,-90.4833,10.0,2.512,217.0,,'11111222,11111222,99999999' 
WAVCIS,ioos:station:WAVCIS:CSI06:1,2010-06-08T14:00:00Z,28.8667,-90.4833,10.0,2.272,196.0,,'11111222,11111222,99999999' 
WAVCIS,ioos:station:WAVCIS:CSI06:1,2010-06-08T15:00:00Z,28.8667,-90.4833,10.0,1.54,220.0,,'11111222,11111222,99999999' 
WAVCIS,ioos:station:WAVCIS:CSI06:1,2010-06-08T16:00:00Z,28.8667,-90.4833,10.0,1.397,236.0,,'11111222,11111222,99999999' 
WAVCIS,ioos:station:WAVCIS:CSI06:1,2010-06-08T17:00:00Z,28.8667,-90.4833,10.0,1.714,168.0,,'11111222,11111222,99999999' 
WAVCIS,ioos:station:WAVCIS:CSI06:1,2010-06-08T18:00:00Z,28.8667,-90.4833,10.0,1.974,145.0,,'11111222,11111222,99999999' 
WAVCIS,ioos:station:WAVCIS:CSI06:1,2010-06-08T19:00:00Z,28.8667,-90.4833,10.0,2.59,148.0,,'11111222,11111222,99999999' 
WAVCIS,ioos:station:WAVCIS:CSI06:1,2010-06-08T20:00:00Z,28.8667,-90.4833,10.0,2.975,133.0,,'11111222,11111222,99999999' 
WAVCIS,ioos:station:WAVCIS:CSI06:1,2010-06-08T21:00:00Z,28.8667,-90.4833,10.0,3.354,118.0,,'11111222,11111222,99999999' 
WAVCIS,ioos:station:WAVCIS:CSI06:1,2010-06-08T22:00:00Z,28.8667,-90.4833,10.0,3.575,134.0,,'11111222,11111222,99999999' 
WAVCIS,ioos:station:WAVCIS:CSI06:1,2010-06-08T23:00:00Z,28.8667,-90.4833,10.0,3.719,147.0,,'11111222,11111222,99999999' 
WAVCIS,ioos:station:WAVCIS:CSI06:1,2010-06-09T00:00:00Z,28.8667,-90.4833,10.0,3.812,159.0,,'11111222,11111222,99999999' 
WAVCIS,ioos:station:WAVCIS:CSI06:1,2010-06-09T01:00:00Z,28.8667,-90.4833,10.0,5.173,145.0,,'11111222,11111222,99999999' 
WAVCIS,ioos:station:WAVCIS:CSI06:1,2010-06-09T02:00:00Z,28.8667,-90.4833,10.0,5.185,162.0,,'11111222,11111222,99999999' 
WAVCIS,ioos:station:WAVCIS:CSI06:1,2010-06-09T03:00:00Z,28.8667,-90.4833,10.0,6.132,152.0,,'11111222,11111222,99999999' 
WAVCIS,ioos:station:WAVCIS:CSI06:1,2010-06-09T04:00:00Z,28.8667,-90.4833,10.0,6.594,152.0,,'11111222,11111222,99999999' 